KOW860 KLAX-KPSP

Flight info

Callsign KOW860
Flight time 0h 28m
Altitude 20000
Route LAXX1 TRM
Aircraft C750/M-SBDE3FGHRWXY/S

Departure

Time 2026-05-06 20:21
Airport Los Angeles International Airport (KLAX)

Arrival

Time 2026-05-06 20:49
Airport Palm Springs International Airport (KPSP)
Time Latitude Longitude Altitude Speed Heading
2026-05-06 20:08 33.93307 -118.39946 89 ft 0 kts 85°
2026-05-06 20:17 33.93307 -118.39945 89 ft 1 kts 85°
2026-05-06 20:17 33.93314 -118.39913 89 ft 7 kts 62°
2026-05-06 20:18 33.93362 -118.39856 89 ft 13 kts 42°
2026-05-06 20:18 33.93426 -118.39817 91 ft 8 kts 346°
2026-05-06 20:18 33.93462 -118.39755 90 ft 14 kts 84°
2026-05-06 20:18 33.93477 -118.39602 91 ft 23 kts 83°
2026-05-06 20:19 33.93502 -118.39368 90 ft 32 kts 84°
2026-05-06 20:19 33.93528 -118.39107 90 ft 30 kts 83°
2026-05-06 20:19 33.93554 -118.38857 89 ft 29 kts 84°
2026-05-06 20:19 33.93577 -118.38618 90 ft 28 kts 83°
2026-05-06 20:20 33.93601 -118.38389 90 ft 27 kts 83°
2026-05-06 20:20 33.93637 -118.38282 91 ft 7 kts 21°
2026-05-06 20:20 33.93673 -118.38282 94 ft 4 kts 355°
2026-05-06 20:20 33.93702 -118.38286 93 ft 6 kts 352°
2026-05-06 20:21 33.93732 -118.38322 94 ft 6 kts 268°
2026-05-06 20:21 33.93690 -118.38728 91 ft 108 kts 263°
2026-05-06 20:21 33.93583 -118.39859 455 ft 139 kts 261°
2026-05-06 20:21 33.93513 -118.41047 1261 ft 149 kts 265°
2026-05-06 20:22 33.93312 -118.42283 1922 ft 162 kts 243°
2026-05-06 20:22 33.92570 -118.43430 2433 ft 190 kts 231°
2026-05-06 20:22 33.91664 -118.44745 2888 ft 217 kts 232°
2026-05-06 20:22 33.90654 -118.46236 3336 ft 243 kts 232°
2026-05-06 20:23 33.89365 -118.47714 3641 ft 276 kts 210°
2026-05-06 20:23 33.87466 -118.48046 4662 ft 279 kts 169°
2026-05-06 20:23 33.85764 -118.46994 5675 ft 279 kts 134°
2026-05-06 20:23 33.84873 -118.44985 6659 ft 273 kts 100°
2026-05-06 20:24 33.84691 -118.42715 7735 ft 271 kts 91°
2026-05-06 20:24 33.84494 -118.40478 8853 ft 274 kts 96°
2026-05-06 20:24 33.84094 -118.38219 9978 ft 277 kts 100°
2026-05-06 20:24 33.83634 -118.35911 10574 ft 294 kts 99°
2026-05-06 20:25 33.83198 -118.33394 10791 ft 321 kts 98°
2026-05-06 20:25 33.82748 -118.30652 10995 ft 344 kts 98°
2026-05-06 20:25 33.82252 -118.27827 11795 ft 345 kts 99°
2026-05-06 20:25 33.81749 -118.25017 12502 ft 350 kts 99°
2026-05-06 20:26 33.81246 -118.22125 13197 ft 355 kts 98°
2026-05-06 20:26 33.80740 -118.19191 13886 ft 361 kts 98°
2026-05-06 20:26 33.80219 -118.16225 14522 ft 364 kts 98°
2026-05-06 20:26 33.79691 -118.13232 15210 ft 366 kts 98°
2026-05-06 20:27 33.79161 -118.10215 15843 ft 369 kts 98°
2026-05-06 20:27 33.78629 -118.07176 16532 ft 372 kts 98°
2026-05-06 20:27 33.78207 -118.04146 17156 ft 373 kts 92°
2026-05-06 20:27 33.77995 -118.01025 17870 ft 375 kts 91°
2026-05-06 20:28 33.77779 -117.97881 18563 ft 378 kts 91°
2026-05-06 20:28 33.77531 -117.94714 19197 ft 382 kts 92°
2026-05-06 20:28 33.77281 -117.91528 19860 ft 382 kts 91°
2026-05-06 20:28 33.77043 -117.88290 20105 ft 399 kts 91°
2026-05-06 20:29 33.76796 -117.84886 20111 ft 419 kts 92°
2026-05-06 20:29 33.76523 -117.81342 20117 ft 431 kts 92°
2026-05-06 20:29 33.76237 -117.77723 20118 ft 436 kts 92°
2026-05-06 20:29 33.75960 -117.74125 20118 ft 438 kts 92°
2026-05-06 20:30 33.75683 -117.70466 20113 ft 439 kts 92°
2026-05-06 20:30 33.75115 -117.63144 20117 ft 440 kts 92°
2026-05-06 20:30 33.74830 -117.59474 20110 ft 439 kts 92°
2026-05-06 20:31 33.74550 -117.55858 20100 ft 441 kts 92°
2026-05-06 20:31 33.74263 -117.52194 20106 ft 440 kts 92°
2026-05-06 20:31 33.73973 -117.48529 20102 ft 440 kts 92°
2026-05-06 20:31 33.73684 -117.44863 20087 ft 438 kts 92°
2026-05-06 20:32 33.73396 -117.41214 20086 ft 439 kts 92°
2026-05-06 20:32 33.73105 -117.37557 20091 ft 441 kts 92°
2026-05-06 20:32 33.72812 -117.33893 20078 ft 439 kts 92°
2026-05-06 20:32 33.72519 -117.30242 20079 ft 439 kts 92°
2026-05-06 20:33 33.72225 -117.26580 20079 ft 439 kts 92°
2026-05-06 20:33 33.71935 -117.22988 20069 ft 439 kts 92°
2026-05-06 20:33 33.71637 -117.19328 20070 ft 439 kts 92°
2026-05-06 20:33 33.71340 -117.15669 20111 ft 439 kts 92°
2026-05-06 20:34 33.71043 -117.12021 20113 ft 439 kts 92°
2026-05-06 20:34 33.70743 -117.08368 20114 ft 439 kts 92°
2026-05-06 20:34 33.70442 -117.04709 20114 ft 439 kts 92°
2026-05-06 20:34 33.70141 -117.01060 20114 ft 439 kts 92°
2026-05-06 20:35 33.69843 -116.97460 20114 ft 439 kts 92°
2026-05-06 20:35 33.69539 -116.93813 20114 ft 439 kts 92°
2026-05-06 20:35 33.69234 -116.90160 20111 ft 439 kts 92°
2026-05-06 20:35 33.68930 -116.86515 20112 ft 439 kts 92°
2026-05-06 20:36 33.68625 -116.82887 20049 ft 437 kts 92°
2026-05-06 20:36 33.68318 -116.79253 20050 ft 437 kts 93°
2026-05-06 20:36 33.68009 -116.75616 19957 ft 438 kts 93°
2026-05-06 20:36 33.67702 -116.71996 19697 ft 434 kts 93°
2026-05-06 20:37 33.67395 -116.68385 19455 ft 432 kts 93°
2026-05-06 20:37 33.67089 -116.64785 19208 ft 431 kts 93°
2026-05-06 20:37 33.66779 -116.61208 18957 ft 430 kts 93°
2026-05-06 20:37 33.66471 -116.57641 18725 ft 423 kts 92°
2026-05-06 20:38 33.66181 -116.54324 18498 ft 386 kts 92°
2026-05-06 20:38 33.65913 -116.51247 18120 ft 358 kts 92°
2026-05-06 20:38 33.65663 -116.48330 17691 ft 346 kts 92°
2026-05-06 20:38 33.65417 -116.45451 17286 ft 347 kts 92°
2026-05-06 20:39 33.65164 -116.42568 16747 ft 347 kts 92°
2026-05-06 20:39 33.64909 -116.39688 16112 ft 343 kts 92°
2026-05-06 20:39 33.64658 -116.36853 15490 ft 340 kts 92°
2026-05-06 20:39 33.64330 -116.34069 14890 ft 341 kts 95°
2026-05-06 20:40 33.63946 -116.31278 14297 ft 338 kts 96°
2026-05-06 20:40 33.63485 -116.28518 13697 ft 336 kts 99°
2026-05-06 20:40 33.62917 -116.25788 13032 ft 336 kts 101°
2026-05-06 20:40 33.62331 -116.23076 12398 ft 334 kts 101°
2026-05-06 20:41 33.61757 -116.20401 11767 ft 326 kts 101°
2026-05-06 20:41 33.61201 -116.17802 11034 ft 318 kts 101°
2026-05-06 20:41 33.61033 -116.15323 10651 ft 290 kts 78°
2026-05-06 20:41 33.61855 -116.13203 9968 ft 278 kts 47°
2026-05-06 20:42 33.63470 -116.12010 9179 ft 274 kts 14°
2026-05-06 20:42 33.65345 -116.12185 8791 ft 278 kts 340°
2026-05-06 20:42 33.66824 -116.13653 8617 ft 280 kts 307°
2026-05-06 20:42 33.67729 -116.15703 8561 ft 272 kts 296°
2026-05-06 20:43 33.68196 -116.17918 7673 ft 280 kts 284°
2026-05-06 20:43 33.68540 -116.20192 7035 ft 279 kts 282°
2026-05-06 20:43 33.68843 -116.22480 6526 ft 273 kts 282°
2026-05-06 20:43 33.69147 -116.24693 6190 ft 271 kts 282°
2026-05-06 20:44 33.69470 -116.26919 5690 ft 263 kts 281°
2026-05-06 20:44 33.69766 -116.29007 5159 ft 246 kts 281°
2026-05-06 20:44 33.70051 -116.30982 4665 ft 234 kts 282°
2026-05-06 20:44 33.70644 -116.32692 4544 ft 218 kts 301°
2026-05-06 20:45 33.71390 -116.34277 4554 ft 219 kts 301°
2026-05-06 20:45 33.72125 -116.35872 4543 ft 211 kts 300°
2026-05-06 20:45 33.72792 -116.37391 4057 ft 193 kts 301°
2026-05-06 20:45 33.73395 -116.38740 3593 ft 176 kts 304°
2026-05-06 20:46 33.74029 -116.39998 3061 ft 180 kts 307°
2026-05-06 20:46 33.74508 -116.40821 2767 ft 180 kts 310°
2026-05-06 20:46 33.75254 -116.41986 2502 ft 172 kts 313°
2026-05-06 20:46 33.75990 -116.43012 2171 ft 155 kts 317°
2026-05-06 20:47 33.76728 -116.43936 1817 ft 147 kts 317°
2026-05-06 20:47 33.77431 -116.44729 1656 ft 132 kts 321°
2026-05-06 20:47 33.78062 -116.45473 1561 ft 128 kts 319°
2026-05-06 20:47 33.78675 -116.46248 1452 ft 126 kts 315°
2026-05-06 20:48 33.79250 -116.47074 1197 ft 133 kts 316°
2026-05-06 20:48 33.79863 -116.47888 1040 ft 133 kts 316°
2026-05-06 20:48 33.80547 -116.48615 852 ft 130 kts 324°
2026-05-06 20:48 33.81274 -116.49264 671 ft 130 kts 324°
2026-05-06 20:49 33.82008 -116.49910 481 ft 130 kts 323°
2026-05-06 20:49 33.82708 -116.50531 419 ft 113 kts 324°
2026-05-06 20:49 33.83197 -116.50975 441 ft 58 kts 323°
2026-05-06 20:49 33.83385 -116.51127 449 ft 14 kts 343°
2026-05-06 20:50 33.83437 -116.51082 449 ft 10 kts 54°
2026-05-06 20:50 33.83468 -116.51034 449 ft 5 kts 54°
2026-05-06 20:50 33.83484 -116.51006 449 ft 0 kts 53°
2026-05-06 20:51 33.83485 -116.51005 449 ft 2 kts 53°
2026-05-06 20:51 33.83502 -116.50978 450 ft 6 kts 53°
2026-05-06 20:51 33.83536 -116.50923 451 ft 9 kts 55°
2026-05-06 20:52 33.83518 -116.50871 450 ft 10 kts 144°
2026-05-06 20:52 33.83439 -116.50800 448 ft 18 kts 144°
2026-05-06 20:52 33.83316 -116.50692 437 ft 26 kts 144°
2026-05-06 20:52 33.83158 -116.50550 434 ft 29 kts 144°
2026-05-06 20:53 33.82994 -116.50404 425 ft 30 kts 142°
2026-05-06 20:53 33.82821 -116.50250 423 ft 32 kts 144°
2026-05-06 20:53 33.82640 -116.50089 414 ft 33 kts 143°
2026-05-06 20:53 33.82487 -116.49951 410 ft 13 kts 133°
2026-05-06 20:54 33.82442 -116.49903 407 ft 7 kts 162°
2026-05-06 20:54 33.82425 -116.49879 404 ft 1 kts 68°
2026-05-06 20:54 33.82430 -116.49875 406 ft 1 kts 41°
2026-05-06 20:55 33.82434 -116.49872 407 ft 1 kts 28°
2026-05-06 20:55 33.82442 -116.49861 406 ft 2 kts 52°
2026-05-06 20:55 33.82443 -116.49859 406 ft 0 kts 52°
2026-05-06 20:55 33.82440 -116.49863 406 ft 0 kts 52°